HB9TJR-3 Weather Reports


time (UTC)temp
F
wind
direction
speed
knots
gust
knots
rain 1hr
in
rain 24hr
in
rain mn
in
humidity
%
barometer
mb
20260506232733 43 0 0.0 0.0 0.00 0.00 0.00 86 861.3
20260506231134 43 0 0.0 0.0 0.00 0.00 0.00 85 861.3
20260506225533 42 0 0.0 0.0 0.00 0.00 0.00 87 861.2
20260506223933 43 0 0.0 0.0 0.00 0.00 0.00 86 861.3
20260506222333 43 0 0.0 0.0 0.00 0.00 0.00 88 861.2
20260506220733 43 0 0.0 0.0 0.00 0.00 0.00 88 861.2
20260506215133 43 0 0.0 0.0 0.00 0.00 0.00 88 861.1
20260506213533 42 0 0.0 0.0 0.00 0.00 0.00 89 861.0
20260506211934 42 0 0.0 0.0 0.00 0.00 0.00 89 861.1
20260506210333 41 0 0.0 0.0 0.00 0.00 0.00 91 861.1
20260506204733 41 0 0.0 0.0 0.00 0.00 0.00 90 861.0
20260506203133 41 0 0.0 0.0 0.00 0.00 0.00 90 861.1
20260506201533 42 0 0.0 0.0 0.00 0.00 0.00 89 861.0
20260506195933 42 0 0.0 0.0 0.00 0.00 0.00 90 860.9
20260506194333 43 0 0.0 0.0 0.00 0.00 0.00 90 860.8
20260506192733 43 0 0.0 0.0 0.00 0.00 0.00 91 860.5
20260506191134 44 0 0.0 0.0 0.00 0.00 0.00 88 860.2
20260506185533 44 0 0.0 0.0 0.00 0.00 0.00 86 860.1
20260506183934 44 0 0.0 0.0 0.00 0.00 0.00 86 860.1
20260506182333 44 0 0.0 0.0 0.00 0.00 0.00 85 860.1
20260506180734 44 0 0.0 0.0 0.00 0.00 0.00 86 860.0
20260506175134 44 0 0.0 0.0 0.00 0.00 0.00 86 859.8
20260506173533 44 0 0.0 0.0 0.00 0.00 0.00 86 859.7
20260506171935 45 0 0.0 0.0 0.00 0.00 0.00 88 859.6
20260506170334 45 0 0.0 0.0 0.00 0.00 0.00 88 859.4
20260506164733 44 0 0.0 0.0 0.00 0.00 0.00 88 859.5
20260506163133 44 0 0.0 0.0 0.00 0.00 0.00 89 859.6
20260506161533 44 0 0.0 0.0 0.00 0.00 0.00 90 859.6
20260506155934 44 0 0.0 0.0 0.00 0.00 0.00 91 859.6
20260506154334 44 0 0.0 0.0 0.00 0.00 0.00 92 859.6
20260506152735 44 0 0.0 0.0 0.00 0.00 0.00 90 859.4
20260506151133 44 0 0.0 0.0 0.00 0.00 0.00 91 859.4
20260506145533 43 0 0.0 0.0 0.00 0.00 0.00 92 859.4
20260506143934 43 0 0.0 0.0 0.00 0.00 0.00 92 859.4
20260506142333 43 0 0.0 0.0 0.00 0.00 0.00 92 859.4
20260506140734 43 0 0.0 0.0 0.00 0.00 0.00 92 859.5
20260506135133 43 0 0.0 0.0 0.00 0.00 0.00 92 859.1
20260506133534 43 0 0.0 0.0 0.00 0.00 0.00 90 859.4
20260506131934 43 0 0.0 0.0 0.00 0.00 0.00 90 859.4
20260506130333 43 0 0.0 0.0 0.00 0.00 0.00 91 859.1
20260506124734 43 0 0.0 0.0 0.00 0.00 0.00 91 858.9
20260506123134 43 0 0.0 0.0 0.00 0.00 0.00 93 858.9
20260506121534 43 0 0.0 0.0 0.00 0.00 0.00 90 858.7
20260506115934 43 0 0.0 0.0 0.00 0.00 0.00 92 858.7
20260506112733 43 0 0.0 0.0 0.00 0.00 0.00 91 858.6
20260506111134 43 0 0.0 0.0 0.00 0.00 0.00 90 858.6
20260506105534 43 0 0.0 0.0 0.00 0.00 0.00 90 858.7
20260506103934 43 0 0.0 0.0 0.00 0.00 0.00 89 858.7
20260506102335 43 0 0.0 0.0 0.00 0.00 0.00 88 858.6
20260506100734 43 0 0.0 0.0 0.00 0.00 0.00 87 858.6
20260506095133 43 0 0.0 0.0 0.00 0.00 0.00 87 858.5
20260506093534 43 0 0.0 0.0 0.00 0.00 0.00 88 858.3
20260506091934 44 0 0.0 0.0 0.00 0.00 0.00 89 858.1
20260506090334 44 0 0.0 0.0 0.00 0.00 0.00 88 857.9
20260506084734 44 0 0.0 0.0 0.00 0.00 0.00 90 857.7
20260506083134 44 0 0.0 0.0 0.00 0.00 0.00 92 857.5
20260506081534 44 0 0.0 0.0 0.00 0.00 0.00 93 857.4
20260506072734 45 0 0.0 0.0 0.00 0.00 0.00 91 857.1
20260506071133 45 0 0.0 0.0 0.00 0.00 0.00 91 857.0
20260506062334 46 0 0.0 0.0 0.00 0.00 0.00 86 857.0
20260506060734 47 0 0.0 0.0 0.00 0.00 0.00 84 856.9
20260506044733 46 0 0.0 0.0 0.00 0.00 0.00 86 856.9
20260506043134 46 0 0.0 0.0 0.00 0.00 0.00 84 857.1
20260506041534 47 0 0.0 0.0 0.00 0.00 0.00 84 857.1
20260506035934 46 0 0.0 0.0 0.00 0.00 0.00 84 857.2
20260506034335 46 0 0.0 0.0 0.00 0.00 0.00 84 857.2
20260506032734 45 0 0.0 0.0 0.00 0.00 0.00 85 857.3
20260506031135 47 0 0.0 0.0 0.00 0.00 0.00 82 857.5
20260506025533 47 0 0.0 0.0 0.00 0.00 0.00 82 857.6
20260506023934 47 0 0.0 0.0 0.00 0.00 0.00 83 857.8
20260506022334 46 0 0.0 0.0 0.00 0.00 0.00 82 857.8
20260506020733 46 0 0.0 0.0 0.00 0.00 0.00 83 858.0
20260506015134 46 0 0.0 0.0 0.00 0.00 0.00 84 858.0
20260506013534 46 0 0.0 0.0 0.00 0.00 0.00 85 858.3
20260506011934 46 0 0.0 0.0 0.00 0.00 0.00 85 858.5
20260506010335 46 0 0.0 0.0 0.00 0.00 0.00 86 858.6
20260506004734 46 0 0.0 0.0 0.00 0.00 0.00 87 858.8
20260506003135 46 0 0.0 0.0 0.00 0.00 0.00 88 859.2
20260506001534 45 0 0.0 0.0 0.00 0.00 0.00 91 859.5
20260505235934 46 0 0.0 0.0 0.00 0.00 0.00 90 859.6
20260505234334 46 0 0.0 0.0 0.00 0.00 0.00 88 859.6